Location: Clanezzo
(45.7500°N, 9.6000°E)
Time: 10:20:46
(UTC+00:00)

ESTCUBE 1 - Visible Passes

Search period start: 30 June 2022 00:00
Search period end: 10 July 2022 00:00
Orbit: 644 x 659 km, 97.9° (Epoch: 29 June)

Date Brightness Start Highest point End Pass type
(mag) Time Alt. Az. Time Alt. Az. Time Alt. Az.
30 Jun ? 21:07:30 23° SE 21:10:06 59° ENE 21:14:31 10° N visible
30 Jun ? 22:45:19 12° WSW 22:47:15 15° W 22:49:51 10° NW visible
01 Jul ? 19:58:38 10° E 20:00:56 14° ENE 20:03:12 10° NNE visible
01 Jul ? 21:34:49 29° S 21:37:04 74° WSW 21:41:34 10° NNW visible
02 Jul ? 20:24:18 11° ESE 20:27:37 24° ENE 20:31:11 10° NNE visible
02 Jul ? 22:02:08 25° SSW 22:04:10 39° W 22:08:22 10° NNW visible
03 Jul ? 20:51:37 19° SE 20:54:26 41° ENE 20:58:39 10° N visible
03 Jul ? 22:29:27 17° SW 22:31:21 21° W 22:34:47 10° NW visible
04 Jul ? 21:18:56 27° SSE 21:21:20 78° ENE 21:25:49 10° N visible
04 Jul ? 22:57:06 10° WSW 22:58:38 12° W 23:00:11 10° WNW visible
05 Jul ? 20:09:06 10° ESE 20:12:02 18° ENE 20:14:59 10° NNE visible
05 Jul ? 21:46:15 29° SSW 21:48:21 56° W 21:52:46 10° NNW visible
06 Jul ? 20:35:45 15° ESE 20:38:46 30° ENE 20:42:41 10° N visible
06 Jul ? 22:13:34 22° SW 22:15:28 30° W 22:19:26 10° NNW visible
07 Jul ? 21:03:04 23° SE 21:05:37 54° ENE 21:10:00 10° N visible
07 Jul ? 22:40:53 14° WSW 22:42:42 17° W 22:45:35 10° NW visible
08 Jul ? 19:54:28 10° E 19:56:28 13° ENE 19:58:27 10° NNE visible
08 Jul ? 21:30:23 30° S 21:32:34 82° WSW 21:37:05 10° NNW visible
09 Jul ? 20:19:53 11° ESE 20:23:08 22° ENE 20:26:34 10° NNE visible
09 Jul ? 21:57:42 27° SSW 21:59:37 43° W 22:03:55 10° NNW visible
